Regional Weather Roundup
Issued by NWS

Home | Current Version | Previous Version | Text Only | Print | Product List | Glossary Off
Versions: 1 2 3 4 5 6 7 8 9 10 11 12 13 14 15 16 17 18 19 20 21 22 23 24 25 26 27 28 29 30 31 32 33 34 35 36 37 38 39 40 41 42 43 44 45 46 47 48 49 50

000
ASUS43 KIND 101509
RWRIN

WEATHER ROUNDUP FOR INDIANA
NATIONAL WEATHER SERVICE INDIANAPOLIS IN
1000 AM EST SAT DEC 10 2016

NOTE: "FAIR" INDICATES FEW OR NO CLOUDS BELOW 12,000 FEET WITH NO
SIGNIFICANT WEATHER AND/OR OBSTRUCTIONS TO VISIBILITY.

* - STATION DOES NOT REPORT WEATHER SUCH AS PRECIPITATION OR FOG.

+ - STATION NOT QUALITY CONTROLLED BY THE NATIONAL WEATHER SERVICE.
    USE DATA WITH CAUTION...ESPECIALLY DEWPOINT AND RELATIVE
    HUMIDITY OBSERVATIONS.

INZ001>003-010>013-019-020-101600-
NORTHWEST INDIANA

CITY           SKY/WX    TMP DP  RH WIND       PRES   REMARKS
GARY /AIRPORT/ CLOUDY    23  16  74 W13       30.55R WCI  11
KNOX *+        CLOUDY    23   1  39 W9        30.53R WCI  13
LA PORTE +     PTSUNNY   20  15  78 W13       30.52R WCI   8
MICHIGAN CITY+ LGT SNOW  21  18  86 SW8       30.53R WCI  12
MONTICELLO +   CLOUDY    23  13  64 W10       30.54R WCI  12
RENSSELAER +     N/A     23  19  86 W8        30.55R WCI  14
VALPARAISO     CLOUDY    22  15  75 W13       30.53R WCI  10

$$

LMZ046-743>745-101600-
SOUTHERN LAKE MICHIGAN

STATION/POSITION TIME  TEMP    WIND        PRES    WAVE
                       AIR SEA DIR/SP/G            HT
                 (UTC) (F)     (DEG/KT/KT) (MB)    (FT)

$$

INZ004-005-014>016-021>024-101600-
NORTH CENTRAL INDIANA

CITY           SKY/WX    TMP DP  RH WIND       PRES   REMARKS
ELKHART        LGT SNOW  21  16  79 W12       30.49R WCI   9
GOSHEN         CLOUDY    22  13  68 SW12      30.50R WCI  10
LOGANSPORT +   FLURRIES  23  18  80 W9        30.55R WCI  13
PERU/GRISSOM   CLOUDY    24  17  76 W12       30.52R WCI  13
ROCHESTER +    PTSUNNY   27  19  74 W13       30.53R WCI  16
SOUTH BEND     LGT SNOW  20  15  81 SW14      30.51R WCI   7
WARSAW +       CLOUDY    23  14  68 W9        30.51R WCI  13

$$

INZ006>009-017-018-025>027-101600-
NORTHEAST INDIANA

CITY           SKY/WX    TMP DP  RH WIND       PRES   REMARKS
ANGOLA *+      SUNNY     21  14  73 W12       30.46R WCI   9
AUBURN +       SUNNY     25  14  63 W9        30.50R WCI  15
FORT WAYNE     CLOUDY    23  15  71 W9        30.52R WCI  13
HUNTINGTON +   CLOUDY    22  15  73 W7        30.52R WCI  14
KENDALLVILLE + MOSUNNY   22  14  71 W16       30.48S WCI   8

$$

INZ028-029-035-036-043>045-051>053-101600-
WEST CENTRAL INDIANA

CITY           SKY/WX    TMP DP  RH WIND       PRES   REMARKS
CRAWFORDSVL +  CLOUDY    22  16  80 SW7       30.55S WCI  13
GREENCASTLE +  CLOUDY    23  19  86 W3        30.56S
LAFAYETTE      CLOUDY    23  17  78 W9        30.55R WCI  13
TERRE HAUTE    CLOUDY    25  18  74 SW3       30.59R

$$

INZ030>032-037>040-046>048-054>057-064-065-101600-
CENTRAL INDIANA

CITY           SKY/WX    TMP DP  RH WIND       PRES   REMARKS
ANDERSON       CLOUDY    23  18  80 SW6       30.54R WCI  16
CP ATTERBURY + CLOUDY    27  18  69 W5        30.58R WCI  21
COLUMBUS       CLOUDY    25  19  80 SW6       30.59R WCI  18
FISHERS *+     CLOUDY    21  19  93 SW5       30.55  WCI  15
FRANKFORT +    CLOUDY    26  19  74 W8        30.55R WCI  17
GREENWOOD *+   CLOUDY    24  16  73 W7        30.57R WCI  16
INDIANAPOLIS   CLOUDY    23  15  71 W12       30.55R WCI  12
-EAGLE CREEK   CLOUDY    23  14  68 W7        30.55R WCI  15
KOKOMO +       CLOUDY    24  17  74 W12       30.54R WCI  13
MARION +       CLOUDY    24  17  77 W10       30.54R HAZE    WCI  13
MT COMFORT *+  CLOUDY    23  16  74 SW8       30.54R WCI  14
SHELBYVILLE    CLOUDY    25  16  68 W8        30.55R WCI  16
ZIONSVILLE +   CLOUDY    22  17  80 SW8       30.55R WCI  12

$$

INZ033-034-041-042-049-050-058-059-101600-
EAST CENTRAL INDIANA

CITY           SKY/WX    TMP DP  RH WIND       PRES   REMARKS
MUNCIE         CLOUDY    25  18  74 W7        30.52R WCI  17

$$

INZ060-061-067>069-081>083-085>088-101600-
SOUTHWEST INDIANA

CITY           SKY/WX    TMP DP  RH WIND       PRES   REMARKS
EVANSVILLE     CLOUDY    27  17  66 CALM      30.61S
HUNTINGBURG *+ CLOUDY    25  21  86 CALM      30.61S
WASHINGTON +   CLOUDY    25  19  78 W5        30.61R WCI  19

$$

INZ062-063-066-070>080-084-089>092-101600-
SOUTH CENTRAL AND SOUTHEAST INDIANA

CITY           SKY/WX    TMP DP  RH WIND       PRES   REMARKS
BLOOMINGTON    PTSUNNY   24  17  74 SW3       30.56R
MADISON *+     SUNNY     27  19  74 SW5       30.60R WCI  21
NORTH VERNON + MOSUNNY   25  23  93 SW6       30.57F WCI  18
SEYMOUR +      SUNNY     27  19  74 SW5       30.60R WCI  21

$$





USA.gov is the U.S. government's official web portal to all federal, state and local government web resources and services.